User: anonymous
Location: Brno
(49.2000°N, 16.6330°E)
Time: 01:57:11
(UTC+02:00)
Language:

BREEZE M DEB (TANK) - Orbit

View from above orbital plane
View from above orbital plane
View from above satellite
View from above satellite

Ground track
Ground track

The orbit data is extracted from the following two-line orbital elements,

1 28359U 04022B   14294.44139529  .00004714  00000-0  73637-3 0  2811
2 28359 049.5276 289.4537 4704527 128.0778 358.4624 06.12003965225432
Epoch (UTC): 21 October 2014 10:35:36
Eccentricity: 0.4704527
inclination: 49.5276°
perigee height: 307 km
apogee height: 12186 km
right ascension of ascending node: 289.4537°
argument of perigee: 128.0778°
revolutions per day: 6.12003965
mean anomaly at epoch: 358.4624°
orbit number at epoch: 22543

The dashed part of the orbit path shows where the satellite is in the earth's shadow,  

DLR